ボリソフ彗星

C/2024 V1 ( Borisov )

English version
Home page
Updated on June 14, 2025

---------------------------------------------------------------------

・ プロフィール

発見日 2024年11月8日
発見光度 19.3等
発見者 Gennadii Vladimirovich Borisov (Nauchnij, Crimea)

・ 写真集

・ 軌道要素

Epoch 2025 May 5.0 TT = JDT 2460800.5
T 2025 Apr. 4.11195 TT                                  Payne
q   2.3184611            (2000.0)            P               Q
z  +0.0042729      Peri.  168.66772     -0.77331959     -0.46615844
 +/-0.0000045      Node   328.19454     +0.49908579     -0.02956216
e   0.9900935      Incl.   54.62512     +0.39101174     -0.88420721
From 408 observations 2024 Oct. 28-2025 Apr. 28, mean residual 0".5.

・ 光度変化

        m1 = 12.0 + 5 logΔ + 12.0 log r

---------------------------------------------------------------------

軌道要素はM.P.E.C. 2025-J08に掲載されたものです。
光度グラフはComet for Windowsで作成したものです。

---------------------------------------------------------------------

Copyright(C) Seiichi Yoshida (comet@aerith.net). All rights reserved.